STORD / SOERSTOKKEN current weather conditions

sailwx.info

Wind from 180 at 12 knots

Air temperature 5.0° C
Visibility: greater than 5.4 NM
Dewpoint 3.0° C

Last reported at 2015-Feb-27 21:20 UTC.
Time now 2015-Feb-28 00:39 UTC

Location: N 59°48' E 005°21'.
View on Google Maps.

See reports from other nearby stations

  
Tides and Currents Weather Stations Pressure Air Temp Water Temp Dewpoint Dewpoint Depression Visibility Wind Speed Wind Dir Waves Ship Positions
date/time (UTC)wind fromknots sea level pressurealtimeterstation pressurevisibilityair tempwater tempwave heightnotes
2015-Feb-27 21:20 180 12 5.4 5.0
2015-Feb-27 20:50 190 11 5.4 5.0
2015-Feb-27 20:20 170 12 5.4 5.0
2015-Feb-27 19:20 190 10 5.4 5.0
2015-Feb-27 17:50 200 12 5.4 6.0
2015-Feb-27 16:50 190 10 5.4 6.0
2015-Feb-27 16:20 200 10 5.4 6.0
2015-Feb-27 15:50 200 9 5.4 6.0
2015-Feb-27 15:20 210 10 5.4 6.0
2015-Feb-27 14:50 200 10 5.4 6.0
2015-Feb-27 14:20 190 13 5.4 6.0
2015-Feb-27 13:50 200 11 5.4 6.0 Light rain showers.
2015-Feb-27 12:50 200 12 5.4 5.0 Showers in the vicinity.
2015-Feb-27 12:20 190 15 5.4 5.0 Light rain.
2015-Feb-27 11:50 180 14 5.4 5.0
2015-Feb-27 11:20 200 12 gusting 22 4.3 5.0 Rain.
2015-Feb-27 10:50 190 13 5.4 5.0
2015-Feb-27 10:20 180 10 5.4 5.0
2015-Feb-27 09:50 180 9 5.4 5.0
2015-Feb-27 09:20 180 9 5.4 5.0
2015-Feb-27 08:50 170 12 5.4 4.0
2015-Feb-27 08:20 160 10 5.4 4.0
2015-Feb-27 07:50 150 11 5.4 3.0
2015-Feb-27 07:20 150 10 5.4 3.0 Light small hail/snow pellets showers.
2015-Feb-26 18:20 240 8 5.4 3.0 Light rain.
2015-Feb-26 17:50 5.4 4.0 Light rain.
2015-Feb-26 17:20 170 19 gusting 33 4.3 4.0 Rain.
2015-Feb-26 16:50 160 18 gusting 29 5.4 4.0 Light rain.
2015-Feb-26 16:20 160 20 gusting 34 5.4 4.0 Light rain.
2015-Feb-26 15:50 160 20 gusting 34 5.4 4.0 Light rain.
2015-Feb-26 15:20 160 23 gusting 36 5.4 5.0 Light rain.
2015-Feb-26 14:50 160 20 gusting 34 5.4 5.0 Light rain.
2015-Feb-26 14:20 160 20 gusting 34 4.9 5.0 Light rain.
2015-Feb-26 13:50 150 20 gusting 30 5.4 5.0 Light rain.
2015-Feb-26 13:20 150 20 gusting 31 5.4 4.0 Light rain.
2015-Feb-26 12:50 150 20 gusting 31 5.4 4.0 Light rain.
2015-Feb-26 12:20 150 20 gusting 32 4.9 4.0 Light rain snow.
2015-Feb-26 11:20 160 19 gusting 37 2.7 3.0
2015-Feb-26 10:50 150 25 gusting 36 2.7 3.0
2015-Feb-26 10:20 150 24 gusting 38 4.3 4.0 Rain drizzle.
2015-Feb-26 09:50 160 27 gusting 45 4.3 4.0 Rain drizzle.
2015-Feb-26 09:20 160 27 gusting 42 5.4 4.0 Rain showers.
2015-Feb-26 08:50 160 27 gusting 42 5.4 5.0 Rain showers.
2015-Feb-26 08:20 150 27 gusting 45 5.4 5.0 Light rain showers.
2015-Feb-26 07:50 160 27 gusting 45 5.4 6.0
2015-Feb-26 07:20 160 22 gusting 45 5.4 5.0
2015-Feb-26 06:50 160 26 gusting 40 5.4 5.0
2015-Feb-26 06:20 160 24 gusting 43 5.4 5.0
2015-Feb-26 05:50 160 23 gusting 40 5.4 5.0
2015-Feb-26 05:20 160 22 gusting 47 5.4 5.0
2015-Feb-26 04:50 160 22 gusting 46 5.4 5.0